Location: Góry Miechowskie
(50.3599°N, 20.1803°E)
Time: 07:22:39
(UTC+00:00)

A-11 Canister half - Pass Details

Date: 22 September 2024
Orbit: 1524 x 1683 km, 47.3° (Epoch: 12 October)

Event Time Altitude Azimuth Distance (km) Brightness Sun altitude
Rises 18:29:38 0° 285° (WNW) 4,825 13.2 -18.4°
Reaches altitude 10° 18:34:47 10° 263° (W) 3,868 11.9 -19.1°
Maximum altitude 18:39:13 14° 235° (SW) 3,574 11.3 -19.8°
Drops below altitude 10° 18:43:41 10° 208° (SSW) 3,908 11.1 -20.4°
Sets 18:49:01 0° 186° (S) 4,911 11.4 -21.2°
